Погода в Черкассах

Россия / Липецкая область     52°41′35″N   38°43′11″E
темп.,
°C
ветер,
м/с
пор.,
м/с
влажн.,
%
обл.,
%
осадки,
мм/ч
давл.,
гПа
погр.,
м
14 августа, вс
вс1400:00+21юв1171100 0.0 102021
03:00+21ююв1166100 0.0 101912
06:00+21ссв3472100 0.3 101963
09:00+20с3578100 0.4 1019161
12:00+22всв3564100 0.0 1020266
15:00+26всв564160 0.0 1019916
18:00+24всв464439 0.0 1018348
21:00+21св375492 0.0 1018148
15 августа, пн
пн1500:00+21всв41154100 0.0 1017276
03:00+19всв4106070 0.0 1017233
06:00+18всв3970100 0.0 1018187
09:00+24в574518 0.0 1018495
12:00+29в783329 0.0 10171598
15:00+31в773147 0.0 10161906
18:00+29в583588 0.0 1016691
21:00+24всв5134863 0.0 1017255
16 августа, вт
вт1600:00+24в7154138 0.0 1017526
03:00+21в6144192 0.0 1018440
06:00+20в61341100 0.0 1019356
09:00+24в7103524 0.0 1019560
12:00+28в892691 0.0 10181268
15:00+30в7824100 0.0 10161779
18:00+28вюв5829100 0.0 1016661
21:00+23всв3640100 0.0 101690
17 августа, ср
ср1700:00+23всв3540100 0.0 101594
03:00+23в41041100 0.0 1015273
06:00+23в41034100 0.0 1015236
09:00+24в51136100 0.0 1015436
12:00+27в61034100 0.0 1015777
15:00+32в892254 0.0 10142090
18:00+30вюв6925100 0.0 1014823
21:00+25всв7153318 0.0 1014434
18 августа, чт
чт1800:00+22в6163776 0.0 1014403
03:00+20в4134358 0.0 1014332
06:00+20всв5144689 0.0 1014362
09:00+25всв8123799 0.0 1014567
12:00+29в8102898 0.0 10131207
15:00+31в81025100 0.1 10131901
18:00+28всв71231100 0.0 1013672
21:00+25всв61338100 0.0 1013387